| time (UTC) | temp F | wind direction | speed knots | gust knots | rain 1hr in | rain 24hr in | rain mn in | humidity % | barometer mb |
| 20260902102504 | 71 | 163 | 1.7 | 2.6 | 0.00 | 0.00 | 0.00 | 87 | 1014.9 |
| 20260902101005 | 71 | 157 | 1.7 | 1.7 | 0.00 | 0.00 | 0.00 | 87 | 1014.9 |
| 20260902100504 | 71 | 154 | 0.9 | 2.6 | 0.00 | 0.00 | 0.00 | 87 | 1014.9 |
| 20260902100004 | 71 | 147 | 2.6 | 2.6 | 0.00 | 0.00 | 0.00 | 87 | 1014.8 |
| 20260902095504 | 71 | 151 | 1.7 | 2.6 | 0.00 | 0.00 | 0.00 | 87 | 1014.8 |
| 20260902092504 | 71 | 152 | 1.7 | 2.6 | 0.00 | 0.00 | 0.00 | 86 | 1015.1 |
| 20260902090504 | 72 | 162 | 1.7 | 1.7 | 0.00 | 0.00 | 0.00 | 85 | 1015.4 |
| 20260902085004 | 72 | 182 | 1.7 | 2.6 | 0.00 | 0.00 | 0.00 | 85 | 1015.4 |
| 20260902084504 | 72 | 184 | 0.9 | 1.7 | 0.00 | 0.00 | 0.00 | 85 | 1015.3 |
| 20260902083504 | 72 | 172 | 1.7 | 2.6 | 0.00 | 0.00 | 0.00 | 86 | 1015.1 |
| 20260902082504 | 72 | 181 | 0.9 | 1.7 | 0.00 | 0.00 | 0.00 | 85 | 1015.1 |
| 20260902082004 | 72 | 181 | 0.9 | 1.7 | 0.00 | 0.00 | 0.00 | 85 | 1015.1 |
| 20260902081504 | 72 | 181 | 0.9 | 1.7 | 0.00 | 0.00 | 0.00 | 85 | 1015.0 |
| 20260902081004 | 72 | 181 | 0.9 | 1.7 | 0.00 | 0.00 | 0.00 | 85 | 1014.9 |
| 20260902080004 | 73 | 181 | 1.7 | 2.6 | 0.00 | 0.00 | 0.00 | 85 | 1014.9 |
| 20260902075504 | 73 | 181 | 1.7 | 2.6 | 0.00 | 0.00 | 0.00 | 85 | 1014.8 |
| 20260902075004 | 73 | 208 | 0.9 | 2.6 | 0.00 | 0.00 | 0.00 | 84 | 1014.8 |
| 20260902074504 | 73 | 209 | 0.9 | 1.7 | 0.00 | 0.00 | 0.00 | 84 | 1014.9 |
| 20260902074004 | 73 | 198 | 0.9 | 1.7 | 0.00 | 0.00 | 0.00 | 85 | 1014.8 |
| 20260902073004 | 72 | 153 | 0.9 | 0.9 | 0.00 | 0.00 | 0.00 | 86 | 1014.7 |
| 20260902072504 | 72 | 153 | 0.9 | 1.7 | 0.00 | 0.00 | 0.00 | 86 | 1014.6 |
| 20260902072004 | 72 | 153 | 1.7 | 2.6 | 0.00 | 0.00 | 0.00 | 86 | 1014.4 |
| 20260902070504 | 73 | 169 | 0.9 | 2.6 | 0.00 | 0.00 | 0.00 | 85 | 1014.7 |
| 20260902070006 | 73 | 167 | 1.7 | 2.6 | 0.00 | 0.00 | 0.00 | 85 | 1014.7 |
| 20260902064504 | 73 | 190 | 0.9 | 2.6 | 0.00 | 0.00 | 0.00 | 85 | 1014.6 |
| 20260902062504 | 74 | 186 | 1.7 | 2.6 | 0.00 | 0.00 | 0.00 | 84 | 1014.8 |
| 20260902061004 | 74 | 188 | 1.7 | 4.3 | 0.00 | 0.00 | 0.00 | 84 | 1014.7 |
| 20260902060004 | 74 | 208 | 1.7 | 4.3 | 0.00 | 0.00 | 0.00 | 83 | 1014.8 |
| 20260902055503 | 75 | 217 | 2.6 | 4.3 | 0.00 | 0.00 | 0.00 | 83 | 1014.8 |
| 20260902054504 | 75 | 212 | 2.6 | 4.3 | 0.00 | 0.00 | 0.00 | 84 | 1014.7 |
| 20260902054004 | 75 | 186 | 3.5 | 7.0 | 0.00 | 0.00 | 0.00 | 84 | 1014.7 |
| 20260902053503 | 74 | 175 | 4.3 | 7.0 | 0.00 | 0.00 | 0.00 | 85 | 1014.7 |
| 20260902053003 | 74 | 182 | 4.3 | 6.1 | 0.00 | 0.00 | 0.00 | 85 | 1014.8 |
| 20260902052504 | 74 | 169 | 4.3 | 7.0 | 0.00 | 0.00 | 0.00 | 86 | 1014.8 |
| 20260902051503 | 74 | 166 | 2.6 | 5.2 | 0.00 | 0.00 | 0.00 | 87 | 1014.9 |
| 20260902051004 | 74 | 164 | 2.6 | 4.3 | 0.00 | 0.00 | 0.00 | 88 | 1014.9 |
| 20260902050504 | 74 | 163 | 1.7 | 2.6 | 0.00 | 0.00 | 0.00 | 87 | 1014.9 |
| 20260902050005 | 74 | 166 | 1.7 | 2.6 | 0.00 | 0.00 | 0.00 | 87 | 1015.0 |
| 20260902045503 | 75 | 179 | 1.7 | 2.6 | 0.00 | 0.00 | 0.00 | 87 | 1015.1 |
| 20260902045004 | 75 | 175 | 1.7 | 4.3 | 0.00 | 0.00 | 0.00 | 87 | 1015.0 |
| 20260902044504 | 75 | 184 | 1.7 | 2.6 | 0.00 | 0.00 | 0.00 | 88 | 1015.1 |
| 20260902043503 | 74 | 159 | 1.7 | 2.6 | 0.00 | 0.00 | 0.00 | 89 | 1015.0 |
| 20260902043005 | 74 | 177 | 0.9 | 2.6 | 0.00 | 0.00 | 0.00 | 88 | 1014.9 |
| 20260902042505 | 75 | 175 | 0.9 | 1.7 | 0.00 | 0.00 | 0.00 | 88 | 1014.8 |
| 20260902042005 | 75 | 175 | 0.9 | 1.7 | 0.00 | 0.00 | 0.00 | 88 | 1014.9 |
| 20260902041506 | 75 | 175 | 0.9 | 1.7 | 0.00 | 0.00 | 0.00 | 89 | 1014.9 |
| 20260902040506 | 75 | 166 | 0.9 | 2.6 | 0.00 | 0.00 | 0.00 | 88 | 1015.0 |
| 20260902035505 | 76 | 187 | 0.9 | 1.7 | 0.00 | 0.00 | 0.00 | 87 | 1015.0 |
| 20260902034006 | 76 | 187 | 0.9 | 1.7 | 0.00 | 0.00 | 0.00 | 86 | 1015.0 |
| 20260902033506 | 76 | 187 | 1.7 | 1.7 | 0.00 | 0.00 | 0.00 | 86 | 1015.0 |
| 20260902033006 | 77 | 187 | 1.7 | 2.6 | 0.00 | 0.00 | 0.00 | 86 | 1015.0 |
| 20260902032505 | 77 | 183 | 1.7 | 2.6 | 0.00 | 0.00 | 0.00 | 86 | 1014.9 |
| 20260902032005 | 77 | 187 | 1.7 | 2.6 | 0.00 | 0.00 | 0.00 | 86 | 1014.9 |
| 20260902031505 | 77 | 194 | 0.9 | 1.7 | 0.00 | 0.00 | 0.00 | 86 | 1014.8 |
| 20260902031006 | 77 | 165 | 0.9 | 1.7 | 0.00 | 0.00 | 0.00 | 86 | 1014.8 |
| 20260902030505 | 77 | 165 | 0.9 | 1.7 | 0.00 | 0.00 | 0.00 | 86 | 1014.7 |
| 20260902030005 | 77 | 164 | 1.7 | 2.6 | 0.00 | 0.00 | 0.00 | 87 | 1014.6 |
| 20260902025506 | 77 | 165 | 1.7 | 2.6 | 0.00 | 0.00 | 0.00 | 87 | 1014.6 |
| 20260902025006 | 77 | 170 | 0.9 | 2.6 | 0.00 | 0.00 | 0.00 | 87 | 1014.6 |
| 20260902024505 | 77 | 154 | 1.7 | 2.6 | 0.00 | 0.00 | 0.00 | 86 | 1014.6 |
| 20260902022006 | 78 | 182 | 1.7 | 4.3 | 0.00 | 0.00 | 0.00 | 84 | 1014.5 |
| 20260902020505 | 79 | 178 | 2.6 | 4.3 | 0.00 | 0.00 | 0.00 | 83 | 1014.5 |
| 20260902020006 | 79 | 178 | 2.6 | 4.3 | 0.00 | 0.00 | 0.00 | 83 | 1014.4 |
| 20260902015006 | 80 | 164 | 2.6 | 4.3 | 0.00 | 0.00 | 0.00 | 83 | 1014.4 |
| 20260902014505 | 80 | 161 | 2.6 | 4.3 | 0.00 | 0.00 | 0.00 | 83 | 1014.3 |
| 20260902012006 | 81 | 155 | 2.6 | 5.2 | 0.00 | 0.00 | 0.00 | 81 | 1014.2 |
| 20260902011005 | 81 | 142 | 2.6 | 2.6 | 0.00 | 0.00 | 0.00 | 81 | 1014.0 |
| 20260902005505 | 82 | 158 | 1.7 | 2.6 | 0.00 | 0.00 | 0.00 | 78 | 1014.0 |
| 20260902005006 | 83 | 158 | 1.7 | 4.3 | 0.00 | 0.00 | 0.00 | 78 | 1014.0 |
| 20260902004006 | 83 | 165 | 1.7 | 2.6 | 0.00 | 0.00 | 0.00 | 76 | 1014.0 |
| 20260902002005 | 85 | 183 | 1.7 | 2.6 | 0.00 | 0.00 | 0.00 | 72 | 1013.9 |
| 20260902000005 | 87 | 178 | 2.6 | 6.1 | 0.00 | 0.00 | 0.00 | 68 | 1014.1 |
| 20260901235505 | 87 | 184 | 2.6 | 6.1 | 0.00 | 0.00 | 0.00 | 68 | 1014.1 |
| 20260901235005 | 88 | 192 | 3.5 | 7.0 | 0.00 | 0.00 | 0.00 | 68 | 1014.2 |
| 20260901234505 | 88 | 195 | 5.2 | 8.7 | 0.00 | 0.00 | 0.00 | 68 | 1014.0 |
| 20260901234005 | 88 | 185 | 3.5 | 7.8 | 0.00 | 0.00 | 0.00 | 68 | 1014.0 |
| 20260901232005 | 90 | 182 | 4.3 | 7.0 | 0.00 | 0.00 | 0.00 | 66 | 1014.2 |
| 20260901230005 | 91 | 188 | 2.6 | 6.1 | 0.00 | 0.00 | 0.00 | 64 | 1014.0 |
| 20260901225505 | 91 | 189 | 4.3 | 8.7 | 0.00 | 0.00 | 0.00 | 63 | 1014.0 |
| 20260901225005 | 91 | 190 | 4.3 | 7.0 | 0.00 | 0.00 | 0.00 | 63 | 1014.0 |
| 20260901224505 | 91 | 202 | 4.3 | 5.2 | 0.00 | 0.00 | 0.00 | 63 | 1014.2 |
| 20260901222505 | 92 | 198 | 5.2 | 8.7 | 0.00 | 0.00 | 0.00 | 61 | 1014.2 |
| 20260901222005 | 92 | 194 | 4.3 | 7.0 | 0.00 | 0.00 | 0.00 | 60 | 1014.1 |
| 20260901221505 | 92 | 191 | 5.2 | 8.7 | 0.00 | 0.00 | 0.00 | 60 | 1014.3 |
| 20260901220505 | 93 | 190 | 2.6 | 7.0 | 0.00 | 0.00 | 0.00 | 62 | 1014.3 |
| 20260901215005 | 93 | 202 | 5.2 | 7.8 | 0.00 | 0.00 | 0.00 | 60 | 1014.2 |
| 20260901214505 | 93 | 182 | 6.1 | 8.7 | 0.00 | 0.00 | 0.00 | 60 | 1014.2 |
| 20260901213005 | 93 | 220 | 2.6 | 6.1 | 0.00 | 0.00 | 0.00 | 61 | 1014.2 |
| 20260901212504 | 93 | 197 | 2.6 | 5.2 | 0.00 | 0.00 | 0.00 | 60 | 1014.3 |
| 20260901212005 | 93 | 213 | 3.5 | 7.0 | 0.00 | 0.00 | 0.00 | 62 | 1014.3 |
| 20260901210505 | 94 | 174 | 2.6 | 6.1 | 0.00 | 0.00 | 0.00 | 60 | 1014.5 |
| 20260901210005 | 94 | 213 | 4.3 | 8.7 | 0.00 | 0.00 | 0.00 | 60 | 1014.4 |
| 20260901205505 | 94 | 222 | 3.5 | 7.0 | 0.00 | 0.00 | 0.00 | 62 | 1014.5 |
| 20260901205005 | 94 | 198 | 3.5 | 6.1 | 0.00 | 0.00 | 0.00 | 61 | 1014.6 |
| 20260901204505 | 94 | 184 | 2.6 | 6.1 | 0.00 | 0.00 | 0.00 | 62 | 1014.6 |
| 20260901202005 | 93 | 211 | 5.2 | 7.8 | 0.00 | 0.00 | 0.00 | 60 | 1014.8 |
| 20260901201505 | 93 | 211 | 5.2 | 7.8 | 0.00 | 0.00 | 0.00 | 62 | 1014.9 |
| 20260901201005 | 93 | 187 | 4.3 | 8.7 | 0.00 | 0.00 | 0.00 | 63 | 1014.9 |
| 20260901200005 | 93 | 208 | 3.5 | 5.2 | 0.00 | 0.00 | 0.00 | 65 | 1014.9 |
| 20260901195005 | 93 | 174 | 3.5 | 7.0 | 0.00 | 0.00 | 0.00 | 62 | 1014.9 |
| 20260901193505 | 93 | 174 | 5.2 | 8.7 | 0.00 | 0.00 | 0.00 | 61 | 1014.9 |
| 20260901193005 | 93 | 205 | 4.3 | 7.0 | 0.00 | 0.00 | 0.00 | 62 | 1015.0 |
| 20260901191504 | 93 | 186 | 2.6 | 8.7 | 0.00 | 0.00 | 0.00 | 63 | 1015.1 |
| 20260901190505 | 94 | 201 | 3.5 | 7.8 | 0.00 | 0.00 | 0.00 | 66 | 1015.0 |
| 20260901185505 | 93 | 196 | 4.3 | 8.7 | 0.00 | 0.00 | 0.00 | 67 | 1015.2 |
| 20260901185006 | 93 | 208 | 3.5 | 7.8 | 0.00 | 0.00 | 0.00 | 64 | 1015.3 |
| 20260901184005 | 93 | 186 | 4.3 | 7.8 | 0.00 | 0.00 | 0.00 | 66 | 1015.3 |
| 20260901183505 | 93 | 191 | 4.3 | 7.8 | 0.00 | 0.00 | 0.00 | 64 | 1015.3 |
| 20260901182505 | 92 | 212 | 4.3 | 6.1 | 0.00 | 0.00 | 0.00 | 67 | 1015.4 |
| 20260901182005 | 92 | 234 | 2.6 | 6.1 | 0.00 | 0.00 | 0.00 | 67 | 1015.4 |
| 20260901181005 | 92 | 224 | 4.3 | 6.1 | 0.00 | 0.00 | 0.00 | 71 | 1015.4 |
| 20260901180505 | 92 | 206 | 3.5 | 7.8 | 0.00 | 0.00 | 0.00 | 69 | 1015.4 |
| 20260901175005 | 91 | 228 | 4.3 | 6.1 | 0.00 | 0.00 | 0.00 | 67 | 1015.6 |
| 20260901174504 | 91 | 209 | 5.2 | 7.0 | 0.00 | 0.00 | 0.00 | 71 | 1015.7 |
| 20260901174006 | 91 | 183 | 4.3 | 8.7 | 0.00 | 0.00 | 0.00 | 69 | 1015.8 |
| 20260901173504 | 91 | 192 | 5.2 | 7.8 | 0.00 | 0.00 | 0.00 | 68 | 1015.9 |
| 20260901173005 | 91 | 183 | 5.2 | 7.8 | 0.00 | 0.00 | 0.00 | 69 | 1016.0 |
| 20260901172504 | 91 | 172 | 4.3 | 7.0 | 0.00 | 0.00 | 0.00 | 69 | 1015.9 |
| 20260901172005 | 91 | 185 | 3.5 | 6.1 | 0.00 | 0.00 | 0.00 | 70 | 1015.9 |
| 20260901171005 | 90 | 214 | 4.3 | 7.0 | 0.00 | 0.00 | 0.00 | 68 | 1015.9 |
| 20260901170004 | 91 | 235 | 2.6 | 6.1 | 0.00 | 0.00 | 0.00 | 71 | 1015.9 |
| 20260901165005 | 90 | 187 | 2.6 | 7.8 | 0.00 | 0.00 | 0.00 | 72 | 1015.9 |
| 20260901163506 | 90 | 220 | 3.5 | 7.0 | 0.00 | 0.00 | 0.00 | 71 | 1015.8 |
| 20260901163005 | 89 | 173 | 4.3 | 7.0 | 0.00 | 0.00 | 0.00 | 74 | 1015.8 |
| 20260901162005 | 90 | 186 | 4.3 | 6.1 | 0.00 | 0.00 | 0.00 | 75 | 1016.0 |
| 20260901161504 | 89 | 172 | 2.6 | 7.0 | 0.00 | 0.00 | 0.00 | 75 | 1016.0 |
| 20260901161017 | 89 | 184 | 3.5 | 7.0 | 0.00 | 0.00 | 0.00 | 75 | 1016.0 |
| 20260901155505 | 88 | 210 | 1.7 | 5.2 | 0.00 | 0.00 | 0.00 | 79 | 1015.9 |
| 20260901155005 | 88 | 157 | 2.6 | 6.1 | 0.00 | 0.00 | 0.00 | 80 | 1016.0 |
| 20260901154505 | 86 | 147 | 2.6 | 5.2 | 0.00 | 0.00 | 0.00 | 83 | 1015.9 |
| 20260901154005 | 85 | 158 | 1.7 | 4.3 | 0.00 | 0.00 | 0.00 | 83 | 1015.9 |
| 20260901153504 | 85 | 172 | 4.3 | 7.0 | 0.00 | 0.00 | 0.00 | 83 | 1015.9 |
| 20260901153004 | 85 | 199 | 1.7 | 4.3 | 0.00 | 0.00 | 0.00 | 84 | 1016.0 |
| 20260901152505 | 85 | 199 | 3.5 | 6.1 | 0.00 | 0.00 | 0.00 | 85 | 1015.9 |
| 20260901151004 | 85 | 150 | 1.7 | 4.3 | 0.00 | 0.00 | 0.00 | 84 | 1015.9 |
| 20260901150504 | 84 | 158 | 2.6 | 4.3 | 0.00 | 0.00 | 0.00 | 86 | 1015.9 |
| 20260901145005 | 81 | 129 | 0.9 | 2.6 | 0.00 | 0.00 | 0.00 | 88 | 1016.0 |
| 20260901143504 | 80 | 163 | 2.6 | 4.3 | 0.00 | 0.00 | 0.00 | 90 | 1016.1 |
| 20260901143004 | 79 | 136 | 1.7 | 2.6 | 0.00 | 0.00 | 0.00 | 89 | 1016.0 |
| 20260901142005 | 78 | 194 | 1.7 | 2.6 | 0.00 | 0.00 | 0.00 | 91 | 1016.4 |
| 20260901141505 | 78 | 185 | 0.9 | 2.6 | 0.00 | 0.00 | 0.00 | 93 | 1016.2 |
| 20260901140504 | 77 | 279 | 0.0 | 1.7 | 0.00 | 0.00 | 0.00 | 92 | 1016.5 |
| 20260901134004 | 75 | 192 | 0.9 | 1.7 | 0.00 | 0.00 | 0.00 | 96 | 1016.7 |
| 20260901133505 | 74 | 184 | 0.9 | 2.6 | 0.00 | 0.00 | 0.00 | 96 | 1016.8 |
| 20260901132505 | 74 | 77 | 0.9 | 1.7 | 0.00 | 0.00 | 0.00 | 96 | 1016.7 |
| 20260901131505 | 72 | 50 | 0.0 | 0.9 | 0.00 | 0.00 | 0.00 | 95 | 1016.6 |
| 20260901131005 | 71 | 0 | 0.0 | 0.0 | 0.00 | 0.00 | 0.00 | 95 | 1016.6 |
| 20260901130505 | 71 | 0 | 0.0 | 0.0 | 0.00 | 0.00 | 0.00 | 95 | 1016.7 |
| 20260901125506 | 71 | 0 | 0.0 | 0.0 | 0.00 | 0.00 | 0.00 | 95 | 1016.6 |
| 20260901124505 | 71 | 0 | 0.0 | 0.0 | 0.00 | 0.00 | 0.00 | 95 | 1016.4 |
| 20260901123504 | 71 | 0 | 0.0 | 0.0 | 0.00 | 0.00 | 0.00 | 95 | 1016.4 |
| 20260901123005 | 71 | 0 | 0.0 | 0.0 | 0.00 | 0.00 | 0.00 | 95 | 1016.4 |
| 20260901122005 | 71 | 0 | 0.0 | 0.0 | 0.00 | 0.00 | 0.00 | 95 | 1016.3 |
| 20260901121504 | 71 | 0 | 0.0 | 0.0 | 0.00 | 0.00 | 0.00 | 95 | 1016.4 |
| 20260901120004 | 71 | 0 | 0.0 | 0.0 | 0.00 | 0.00 | 0.00 | 95 | 1016.3 |
| 20260901115505 | 71 | 0 | 0.0 | 0.0 | 0.00 | 0.00 | 0.00 | 95 | 1016.2 |
| 20260901112504 | 71 | 0 | 0.0 | 0.0 | 0.00 | 0.00 | 0.00 | 95 | 1015.7 |
| 20260901112004 | 71 | 0 | 0.0 | 1.7 | 0.00 | 0.00 | 0.00 | 95 | 1015.8 |
| 20260901111504 | 71 | 176 | 1.7 | 1.7 | 0.00 | 0.00 | 0.00 | 95 | 1015.9 |
| 20260901111004 | 71 | 176 | 1.7 | 1.7 | 0.00 | 0.00 | 0.00 | 95 | 1015.8 |
| 20260901104504 | 71 | 243 | 0.9 | 1.7 | 0.00 | 0.00 | 0.00 | 95 | 1015.5 |
| 20260901103004 | 71 | 243 | 0.9 | 1.7 | 0.00 | 0.00 | 0.00 | 95 | 1015.4 |